User: anonymous   Login
Location: UBC Liquid-Mirror Observatory
(49.2876°N, 122.5728°W)
Time: 20:19:27
(UTC-08:00)
Language:

KITSAT 1 - Orbit

View from above orbital plane
View from above orbital plane
View from above satellite
View from above satellite

Ground track
Ground track

The orbit data is extracted from the following two-line orbital elements,

1 22077U 92052B   15024.37972355 -.00000043  00000-0  75708-4 0  7862
2 22077 066.0870 358.9558 0004072 350.2195 175.9940 12.86500552 54859
Epoch (UTC): 24 January 2015 09:06:48
Eccentricity: 0.0004072
inclination: 66.0870°
perigee height: 1312 km
apogee height: 1318 km
right ascension of ascending node: 358.9558°
argument of perigee: 350.2195°
revolutions per day: 12.86500552
mean anomaly at epoch: 175.9940°
orbit number at epoch: 5485

The dashed part of the orbit path shows where the satellite is in the earth's shadow,  

DLR